There are multiple Weather-warnings   Click here for more information


Meteo18 Weather Cam more information Meteo18 Weather Cam


Thunder radar more information blitzortung!


warning for Snow/Ice more information rain snow radar


Visit our other weather sites:

Template documentation
and downloads

And another site



Weather Underground History page Text

Daily Summary for March 21, 2017 Units:  English    Metric   Both
« Previous Day
Next Day »
Daily Weekly Monthly Yearly Custom
  High: Low: Average:
Temperature: TemperatureC °F 3.6 °F 7.6 °F
Dew Point: DewpointC °F 2.9 °F 6.1 °F
Humidity: Humidity % 80 % 90 %
Wind Speed: WindSpeedKMH mph 0.0 mph 6.2 mph
Wind Gust: WindSpeedGustKMH mph - -
Wind:- - WSW
Pressure: PressurehPa in 1013.4 in -
Precipitation: 6.3 in    
Historical Graphs
 
 
Tabular Data for March 21, 2017
Time Temperature Dew Point Pressure Wind Wind Speed Wind Gust Humidity Rainfall Rate (Hourly)
TemperatureC °F DewpointC °F PressurehPa in Calm     Humidity % HourlyPrecipMM in
00:02 9.7 °F 6.4 °F 1015.1 in WSW 8.0 mph 17.7 mph 80 % 0.0 in
00:12 9.7 °F 6.4 °F 1015.1 in SW 14.5 mph 17.7 mph 80 % 0.0 in
00:17 9.7 °F 6.4 °F 1015.1 in WSW 8.0 mph 17.7 mph 80 % 0.0 in
00:22 9.6 °F 6.3 °F 1015.1 in SW 9.7 mph 16.1 mph 80 % 0.0 in
00:32 9.6 °F 6.3 °F 1015.1 in WNW 6.4 mph 14.5 mph 80 % 0.0 in
00:37 9.6 °F 6.3 °F 1015.1 in WSW 9.7 mph 14.5 mph 80 % 0.0 in
00:42 9.6 °F 6.3 °F 1014.8 in WSW 9.7 mph 16.1 mph 80 % 0.0 in
00:47 9.6 °F 6.5 °F 1014.8 in WSW 6.4 mph 14.5 mph 81 % 0.0 in
00:52 9.6 °F 6.5 °F 1014.8 in SW 4.8 mph 14.5 mph 81 % 0.0 in
00:57 9.6 °F 6.5 °F 1014.8 in SW 12.9 mph 17.7 mph 81 % 0.0 in
01:02 9.6 °F 6.5 °F 1014.8 in WSW 19.3 mph 19.3 mph 81 % 0.0 in
01:12 9.6 °F 6.5 °F 1014.8 in SW 14.5 mph 19.3 mph 81 % 0.0 in
01:17 9.6 °F 6.7 °F 1014.8 in WSW 6.4 mph 22.5 mph 82 % 0.0 in
01:22 9.5 °F 6.6 °F 1014.8 in West 12.9 mph 22.5 mph 82 % 0.0 in
01:27 9.5 °F 6.6 °F 1014.8 in SW 8.0 mph 22.5 mph 82 % 0.0 in
01:32 9.5 °F 6.6 °F 1014.8 in WSW 12.9 mph 22.5 mph 82 % 0.0 in
01:42 9.5 °F 6.6 °F 1014.8 in WSW 11.3 mph 29.0 mph 82 % 0.0 in
01:52 9.4 °F 6.7 °F 1014.8 in SW 11.3 mph 22.5 mph 83 % 0.0 in
01:57 9.4 °F 6.7 °F 1014.4 in WSW 6.4 mph 20.9 mph 83 % 0.0 in
02:02 9.4 °F 6.8 °F 1014.4 in WSW 17.7 mph 20.9 mph 84 % 0.0 in
02:07 9.4 °F 6.8 °F 1014.4 in SW 12.9 mph 27.4 mph 84 % 0.0 in
02:12 9.3 °F 6.7 °F 1014.4 in WSW 14.5 mph 27.4 mph 84 % 0.0 in
02:17 9.3 °F 6.7 °F 1014.4 in WSW 17.7 mph 22.5 mph 84 % 0.0 in
02:22 9.3 °F 6.7 °F 1014.4 in WSW 11.3 mph 22.5 mph 84 % 0.0 in
02:27 9.3 °F 6.7 °F 1014.4 in WSW 9.7 mph 25.7 mph 84 % 0.0 in
02:32 9.2 °F 6.6 °F 1014.4 in SSW 9.7 mph 25.7 mph 84 % 0.0 in
02:42 9.2 °F 6.8 °F 1014.4 in WSW 14.5 mph 19.3 mph 85 % 0.0 in
02:47 9.2 °F 6.8 °F 1014.4 in SW 14.5 mph 19.3 mph 85 % 0.0 in
02:52 9.2 °F 6.8 °F 1014.4 in SW 8.0 mph 19.3 mph 85 % 0.0 in
02:57 9.1 °F 6.7 °F 1014.4 in SW 6.4 mph 19.3 mph 85 % 0.0 in
03:02 9.2 °F 6.8 °F 1014.1 in WSW 6.4 mph 19.3 mph 85 % 0.0 in
03:07 9.2 °F 6.8 °F 1014.1 in SW 8.0 mph 17.7 mph 85 % 0.0 in
03:12 9.1 °F 6.7 °F 1014.1 in SW 9.7 mph 17.7 mph 85 % 0.0 in
03:17 9.1 °F 6.9 °F 1014.1 in SW 9.7 mph 22.5 mph 86 % 0.0 in
03:22 9.0 °F 7.0 °F 1014.1 in WSW 6.4 mph 22.5 mph 87 % 0.0 in
03:32 8.8 °F 6.8 °F 1014.1 in SW 11.3 mph 19.3 mph 87 % 0.0 in
03:37 8.8 °F 6.9 °F 1014.1 in SW 9.7 mph 17.7 mph 88 % 0.0 in
03:42 8.8 °F 6.9 °F 1014.1 in SW 16.1 mph 17.7 mph 88 % 0.0 in
03:52 8.8 °F 6.9 °F 1014.1 in WSW 17.7 mph 19.3 mph 88 % 0.0 in
03:57 8.7 °F 6.8 °F 1013.8 in SW 9.7 mph 22.5 mph 88 % 0.0 in
04:02 8.6 °F 7.1 °F 1013.8 in WSW 9.7 mph 22.5 mph 90 % 0.0 in
04:07 8.5 °F 7.1 °F 1013.8 in SW 12.9 mph 22.5 mph 91 % 0.0 in
04:12 8.4 °F 7.2 °F 1013.8 in WSW 11.3 mph 22.5 mph 92 % 0.0 in
04:17 8.3 °F 7.1 °F 1013.8 in SW 8.0 mph 17.7 mph 92 % 0.0 in
04:22 8.3 °F 7.1 °F 1013.8 in SW 4.8 mph 17.7 mph 92 % 0.0 in
04:27 8.3 °F 7.1 °F 1013.8 in WSW 6.4 mph 20.9 mph 92 % 0.0 in
04:32 8.3 °F 7.1 °F 1013.8 in SW 11.3 mph 20.9 mph 92 % 0.0 in
04:42 8.4 °F 7.0 °F 1013.8 in SW 11.3 mph 17.7 mph 91 % 0.0 in
04:47 8.4 °F 7.0 °F 1013.8 in SW 16.1 mph 20.9 mph 91 % 0.0 in
04:52 8.3 °F 7.1 °F 1013.8 in SW 12.9 mph 20.9 mph 92 % 0.0 in
04:57 8.2 °F 7.1 °F 1013.8 in SW 11.3 mph 22.5 mph 93 % 0.0 in
05:02 8.2 °F 7.1 °F 1013.8 in SW 9.7 mph 22.5 mph 93 % 0.0 in
05:07 8.1 °F 7.0 °F 1013.8 in SSW 17.7 mph 22.5 mph 93 % 0.0 in
05:17 8.1 °F 7.2 °F 1013.8 in SSW 11.3 mph 20.9 mph 94 % 0.0 in
05:22 8.1 °F 7.2 °F 1013.4 in SW 12.9 mph 20.9 mph 94 % 0.0 in
05:32 8.1 °F 7.2 °F 1013.4 in SSW 12.9 mph 19.3 mph 94 % 0.0 in
05:42 8.1 °F 7.2 °F 1013.4 in SSW 9.7 mph 20.9 mph 94 % 0.0 in
05:52 8.0 °F 7.1 °F 1013.4 in SW 9.7 mph 19.3 mph 94 % 0.0 in
06:02 7.9 °F 7.1 °F 1013.4 in SSW 11.3 mph 17.7 mph 95 % 0.0 in
06:12 7.9 °F 7.1 °F 1013.8 in SW 12.9 mph 17.7 mph 95 % 0.0 in
06:17 7.9 °F 7.1 °F 1013.4 in SW 9.7 mph 17.7 mph 95 % 0.0 in
06:27 7.8 °F 7.2 °F 1013.4 in SW 8.0 mph 17.7 mph 96 % 0.0 in
06:32 7.8 °F 7.2 °F 1013.4 in SW 9.7 mph 17.7 mph 96 % 0.0 in
06:42 7.8 °F 7.2 °F 1013.4 in SW 9.7 mph 16.1 mph 96 % 0.0 in
06:47 7.8 °F 7.2 °F 1013.4 in SSW 9.7 mph 16.1 mph 96 % 0.0 in
06:52 7.8 °F 7.2 °F 1013.4 in SSW 9.7 mph 16.1 mph 96 % 0.0 in
06:57 7.8 °F 7.2 °F 1013.4 in SW 11.3 mph 16.1 mph 96 % 0.0 in
07:02 7.8 °F 7.2 °F 1013.4 in SW 9.7 mph 16.1 mph 96 % 0.0 in
07:07 7.8 °F 7.2 °F 1013.4 in WSW 8.0 mph 16.1 mph 96 % 0.0 in
07:12 7.8 °F 7.2 °F 1013.4 in SSW 6.4 mph 16.1 mph 96 % 0.0 in
07:17 7.8 °F 7.2 °F 1013.4 in SW 12.9 mph 16.1 mph 96 % 0.0 in
07:22 7.8 °F 7.2 °F 1013.4 in SW 11.3 mph 17.7 mph 96 % 0.0 in
07:27 7.8 °F 7.2 °F 1013.4 in SW 8.0 mph 17.7 mph 96 % 0.0 in
07:32 7.9 °F 7.3 °F 1013.8 in SW 6.4 mph 17.7 mph 96 % 0.0 in
07:37 7.9 °F 7.3 °F 1013.8 in SSW 8.0 mph 17.7 mph 96 % 0.0 in
07:42 7.9 °F 7.3 °F 1013.4 in SW 14.5 mph 16.1 mph 96 % 0.0 in
07:47 7.9 °F 7.5 °F 1013.8 in SW 11.3 mph 16.1 mph 97 % 0.0 in
07:52 7.9 °F 7.5 °F 1013.8 in SW 11.3 mph 17.7 mph 97 % 0.0 in
07:57 8.0 °F 7.6 °F 1013.8 in SSW 8.0 mph 17.7 mph 97 % 0.0 in
08:02 8.0 °F 7.6 °F 1013.8 in SW 8.0 mph 14.5 mph 97 % 0.0 in
08:07 8.1 °F 7.7 °F 1013.8 in SW 9.7 mph 14.5 mph 97 % 0.0 in
08:12 8.1 °F 7.7 °F 1013.8 in SW 4.8 mph 16.1 mph 97 % 0.0 in
08:17 8.1 °F 7.7 °F 1013.8 in SW 4.8 mph 16.1 mph 97 % 0.0 in
08:22 8.1 °F 7.7 °F 1013.8 in SW 8.0 mph 14.5 mph 97 % 0.0 in
08:32 8.2 °F 7.8 °F 1013.8 in SW 9.7 mph 14.5 mph 97 % 0.0 in
08:37 8.2 °F 7.8 °F 1013.8 in SW 4.8 mph 14.5 mph 97 % 0.0 in
08:42 8.2 °F 7.8 °F 1013.8 in SW 6.4 mph 12.9 mph 97 % 0.0 in
08:47 8.3 °F 7.9 °F 1013.8 in WSW 9.7 mph 12.9 mph 97 % 0.0 in
08:57 8.4 °F 8.0 °F 1013.8 in West 9.7 mph 11.3 mph 97 % 0.3 in
09:02 8.4 °F 7.8 °F 1013.8 in WSW 6.4 mph 16.1 mph 96 % 0.3 in
09:07 8.4 °F 7.8 °F 1013.8 in West 3.2 mph 16.1 mph 96 % 0.3 in
09:17 8.6 °F 8.0 °F 1013.8 in SW 4.8 mph 14.5 mph 96 % 0.5 in
09:22 8.6 °F 8.0 °F 1013.8 in West 8.0 mph 14.5 mph 96 % 0.5 in
09:27 8.6 °F 8.0 °F 1013.8 in West 6.4 mph 14.5 mph 96 % 0.5 in
09:32 8.7 °F 8.1 °F 1013.8 in WSW 8.0 mph 16.1 mph 96 % 0.5 in
09:37 8.7 °F 7.9 °F 1014.1 in West 3.2 mph 16.1 mph 95 % 0.5 in
09:42 8.8 °F 8.0 °F 1014.1 in West 4.8 mph 16.1 mph 95 % 0.5 in
09:47 8.8 °F 8.0 °F 1014.1 in WSW 1.6 mph 16.1 mph 95 % 0.5 in
09:52 8.9 °F 8.1 °F 1013.8 in West 4.8 mph 14.5 mph 95 % 0.8 in
09:57 8.9 °F 8.1 °F 1013.8 in WSW 3.2 mph 14.5 mph 95 % 0.8 in
10:02 9.0 °F 8.2 °F 1013.8 in Calm   9.7 mph 95 % 1.0 in
10:07 9.1 °F 8.2 °F 1014.1 in West 1.6 mph 9.7 mph 94 % 1.0 in
10:12 9.1 °F 8.2 °F 1014.1 in WSW 1.6 mph 4.8 mph 94 % 1.0 in
10:17 9.1 °F 8.2 °F 1014.1 in West 1.6 mph 4.8 mph 94 % 1.0 in
10:22 9.1 °F 8.0 °F 1014.1 in SW 3.2 mph 3.2 mph 93 % 1.0 in
10:27 9.1 °F 8.0 °F 1014.1 in Calm   3.2 mph 93 % 1.0 in
10:32 9.2 °F 8.0 °F 1014.1 in Calm   4.8 mph 92 % 1.0 in
10:37 9.3 °F 8.1 °F 1014.1 in SW 3.2 mph 4.8 mph 92 % 1.0 in
10:42 9.3 °F 8.2 °F 1014.1 in Calm   6.4 mph 93 % 0.8 in
10:47 9.4 °F 8.3 °F 1014.1 in Calm   6.4 mph 93 % 0.8 in
10:52 9.4 °F 8.3 °F 1014.1 in SW 3.2 mph 6.4 mph 93 % 0.5 in
11:02 9.4 °F 8.5 °F 1014.1 in WNW 3.2 mph 4.8 mph 94 % 0.5 in
11:12 9.4 °F 8.3 °F 1014.1 in WSW 6.4 mph 6.4 mph 93 % 0.8 in
11:17 9.3 °F 8.1 °F 1014.4 in West 3.2 mph 6.4 mph 92 % 0.8 in
11:22 9.3 °F 8.1 °F 1014.1 in WSW 4.8 mph 12.9 mph 92 % 0.5 in
11:32 9.3 °F 7.7 °F 1014.4 in West 4.8 mph 12.9 mph 90 % 0.8 in
11:37 9.3 °F 7.4 °F 1014.4 in WNW 8.0 mph 12.9 mph 88 % 0.8 in
11:42 9.4 °F 7.7 °F 1014.4 in WNW 6.4 mph 12.9 mph 89 % 0.8 in
11:47 9.2 °F 7.3 °F 1014.4 in NNW 12.9 mph 12.9 mph 88 % 0.8 in
11:52 8.8 °F 6.9 °F 1014.4 in West 8.0 mph 16.1 mph 88 % 1.3 in
12:02 8.4 °F 6.5 °F 1014.4 in NW 11.3 mph 17.7 mph 88 % 1.5 in
12:07 8.5 °F 6.8 °F 1014.4 in WNW 1.6 mph 17.7 mph 89 % 1.3 in
12:12 8.6 °F 6.9 °F 1014.4 in WNW 8.0 mph 17.7 mph 89 % 1.3 in
12:17 8.7 °F 7.2 °F 1014.4 in NW 3.2 mph 14.5 mph 90 % 1.3 in
12:22 8.8 °F 7.1 °F 1014.4 in NW 1.6 mph 11.3 mph 89 % 1.0 in
12:32 8.9 °F 7.2 °F 1014.4 in WNW 4.8 mph 11.3 mph 89 % 1.0 in
12:37 9.0 °F 7.3 °F 1014.8 in WNW 4.8 mph 11.3 mph 89 % 1.0 in
12:42 8.9 °F 7.0 °F 1014.8 in West 8.0 mph 11.3 mph 88 % 1.0 in
12:47 8.9 °F 7.2 °F 1014.8 in NW 11.3 mph 14.5 mph 89 % 0.5 in
12:52 8.8 °F 6.4 °F 1014.8 in NW 6.4 mph 14.5 mph 85 % 0.3 in
12:57 8.7 °F 6.3 °F 1014.8 in WNW 11.3 mph 17.7 mph 85 % 0.5 in
13:02 8.6 °F 6.0 °F 1014.4 in NW 3.2 mph 17.7 mph 84 % 0.5 in
13:07 8.7 °F 6.3 °F 1014.4 in West 1.6 mph 16.1 mph 85 % 0.3 in
13:12 8.8 °F 6.9 °F 1014.4 in NW 3.2 mph 16.1 mph 88 % 0.3 in
13:17 8.8 °F 6.8 °F 1014.8 in WNW 11.3 mph 11.3 mph 87 % 0.3 in
13:22 8.7 °F 6.3 °F 1014.8 in NW 3.2 mph 9.7 mph 85 % 0.3 in
13:32 8.4 °F 6.4 °F 1014.8 in WNW 3.2 mph 12.9 mph 87 % 0.3 in
13:47 8.4 °F 6.9 °F 1014.8 in WNW 8.0 mph 12.9 mph 90 % 0.5 in
13:52 8.4 °F 6.9 °F 1014.8 in NNW 16.1 mph 16.1 mph 90 % 0.5 in
13:57 7.8 °F 6.1 °F 1015.1 in NNW 11.3 mph 24.1 mph 89 % 0.5 in
14:02 7.3 °F 5.8 °F 1015.1 in WNW 9.7 mph 24.1 mph 90 % 0.5 in
14:12 7.0 °F 5.8 °F 1015.1 in NW 3.2 mph 25.7 mph 92 % 0.8 in
14:17 7.1 °F 5.9 °F 1015.1 in NW 11.3 mph 25.7 mph 92 % 1.0 in
14:22 6.9 °F 5.5 °F 1015.1 in NW 9.7 mph 25.7 mph 91 % 1.0 in
14:32 6.9 °F 5.4 °F 1015.1 in NW 16.1 mph 24.1 mph 90 % 1.3 in
14:42 6.9 °F 5.2 °F 1015.1 in NW 1.6 mph 20.9 mph 89 % 1.3 in
14:47 6.9 °F 5.4 °F 1015.1 in NNW 6.4 mph 20.9 mph 90 % 1.3 in
14:52 6.9 °F 5.4 °F 1015.1 in NNE 3.2 mph 20.9 mph 90 % 1.3 in
15:02 6.9 °F 5.4 °F 1015.1 in NW 6.4 mph 16.1 mph 90 % 1.3 in
15:12 6.9 °F 5.4 °F 1015.1 in WNW 6.4 mph 19.3 mph 90 % 1.0 in
15:17 6.8 °F 5.3 °F 1015.1 in NW 4.8 mph 25.7 mph 90 % 0.8 in
15:22 6.7 °F 5.0 °F 1015.1 in WNW 6.4 mph 25.7 mph 89 % 0.8 in
15:27 6.6 °F 5.1 °F 1015.1 in North 1.6 mph 25.7 mph 90 % 0.5 in
15:32 6.7 °F 5.3 °F 1015.1 in NW 1.6 mph 25.7 mph 91 % 0.5 in
15:37 6.7 °F 5.3 °F 1015.1 in NNW 8.0 mph 16.1 mph 91 % 0.5 in
15:42 6.7 °F 5.2 °F 1015.1 in NNW 3.2 mph 16.1 mph 90 % 0.5 in
15:47 6.7 °F 5.2 °F 1015.1 in West 4.8 mph 14.5 mph 90 % 0.5 in
16:02 6.7 °F 5.0 °F 1015.1 in NNW 8.0 mph 17.7 mph 89 % 0.5 in
16:12 6.7 °F 5.0 °F 1015.5 in NW 1.6 mph 17.7 mph 89 % 0.5 in
16:17 6.7 °F 4.9 °F 1015.5 in NW 6.4 mph 14.5 mph 88 % 0.5 in
16:27 6.7 °F 4.9 °F 1015.5 in Calm   14.5 mph 88 % 0.3 in
16:32 6.7 °F 4.9 °F 1015.5 in Calm   14.5 mph 88 % 0.3 in
16:37 6.7 °F 4.9 °F 1015.5 in Calm   8.0 mph 88 % 0.3 in
16:42 6.7 °F 4.9 °F 1015.5 in WNW 1.6 mph 8.0 mph 88 % 0.3 in
16:47 6.8 °F 5.0 °F 1015.5 in WNW 1.6 mph 3.2 mph 88 % 0.3 in
16:52 6.8 °F 5.0 °F 1015.5 in Calm   3.2 mph 88 % 0.3 in
17:02 6.8 °F 5.0 °F 1015.5 in Calm   3.2 mph 88 % 0.3 in
17:07 6.8 °F 5.0 °F 1015.5 in West 1.6 mph 3.2 mph 88 % 0.3 in
17:12 6.8 °F 5.0 °F 1015.5 in WNW 1.6 mph 3.2 mph 88 % 0.3 in
17:17 6.8 °F 5.0 °F 1015.5 in WNW 3.2 mph 4.8 mph 88 % 0.3 in
17:22 6.8 °F 4.8 °F 1015.5 in WNW 6.4 mph 6.4 mph 87 % 0.3 in
17:32 6.9 °F 5.1 °F 1015.5 in WSW 3.2 mph 9.7 mph 88 % 0.3 in
17:37 6.9 °F 4.0 °F 1015.5 in West 3.2 mph 12.9 mph 82 % 0.3 in
17:42 6.9 °F 4.2 °F 1015.5 in West 1.6 mph 12.9 mph 83 % 0.3 in
17:47 6.9 °F 4.2 °F 1015.5 in WNW 6.4 mph 12.9 mph 83 % 0.3 in
17:52 6.8 °F 4.5 °F 1015.5 in Calm   12.9 mph 85 % 0.3 in
18:02 6.7 °F 4.5 °F 1015.5 in West 1.6 mph 6.4 mph 86 % 0.3 in
18:12 6.6 °F 4.6 °F 1015.5 in Calm   3.2 mph 87 % 0.5 in
18:17 6.5 °F 4.5 °F 1015.5 in Calm   3.2 mph 87 % 0.5 in
18:22 6.4 °F 4.4 °F 1015.5 in Calm   1.6 mph 87 % 0.5 in
18:27 6.4 °F 4.4 °F 1015.8 in Calm   1.6 mph 87 % 0.5 in
18:32 6.4 °F 4.4 °F 1015.8 in Calm   1.6 mph 87 % 0.5 in
18:37 6.4 °F 4.6 °F 1015.8 in Calm   1.6 mph 88 % 0.5 in
18:42 6.4 °F 4.9 °F 1015.8 in Calm   1.6 mph 90 % 0.3 in
18:52 6.4 °F 5.0 °F 1015.8 in Calm   1.6 mph 91 % 0.3 in
18:57 6.3 °F 4.9 °F 1015.8 in Calm   1.6 mph 91 % 0.3 in
19:02 6.2 °F 4.8 °F 1016.1 in Calm   1.6 mph 91 % 0.3 in
19:07 6.2 °F 5.0 °F 1016.1 in Calm   1.6 mph 92 % 0.3 in
19:12 6.2 °F 5.0 °F 1016.1 in Calm   1.6 mph 92 % 0.0 in
19:17 6.2 °F 5.0 °F 1016.1 in SSW 3.2 mph 4.8 mph 92 % 0.0 in
19:22 6.2 °F 5.0 °F 1016.1 in Calm   4.8 mph 92 % 0.0 in
19:32 6.3 °F 5.3 °F 1016.1 in SSW 1.6 mph 4.8 mph 93 % 0.0 in
19:37 6.3 °F 5.3 °F 1016.1 in South 1.6 mph 6.4 mph 93 % 0.0 in
19:42 6.3 °F 5.3 °F 1016.1 in SSW 3.2 mph 6.4 mph 93 % 0.0 in
19:52 6.2 °F 5.2 °F 1016.1 in SW 3.2 mph 6.4 mph 93 % 0.0 in
19:57 6.2 °F 5.2 °F 1016.1 in SSW 3.2 mph 9.7 mph 93 % 0.0 in
20:02 6.1 °F 5.1 °F 1016.1 in SW 4.8 mph 9.7 mph 93 % 0.0 in
20:07 6.1 °F 5.1 °F 1016.5 in SW 4.8 mph 9.7 mph 93 % 0.0 in
20:12 6.1 °F 5.1 °F 1016.5 in Calm   9.7 mph 93 % 0.0 in
20:17 6.0 °F 5.0 °F 1016.5 in SSW 3.2 mph 8.0 mph 93 % 0.0 in
20:22 6.0 °F 5.1 °F 1016.5 in WSW 6.4 mph 8.0 mph 94 % 0.0 in
20:32 5.9 °F 5.0 °F 1016.5 in SW 6.4 mph 11.3 mph 94 % 0.0 in
20:37 5.9 °F 5.0 °F 1016.5 in SW 4.8 mph 9.7 mph 94 % 0.0 in
20:42 5.8 °F 4.9 °F 1016.5 in SW 8.0 mph 9.7 mph 94 % 0.0 in
20:52 5.8 °F 4.9 °F 1016.5 in SSW 1.6 mph 9.7 mph 94 % 0.0 in
20:57 5.7 °F 4.8 °F 1016.5 in SW 3.2 mph 11.3 mph 94 % 0.0 in
21:02 5.7 °F 4.8 °F 1016.5 in SW 3.2 mph 11.3 mph 94 % 0.0 in
21:07 5.7 °F 4.8 °F 1016.5 in WSW 6.4 mph 9.7 mph 94 % 0.0 in
21:12 5.6 °F 4.7 °F 1016.5 in SW 3.2 mph 9.7 mph 94 % 0.0 in
21:17 5.5 °F 4.6 °F 1016.5 in SW 1.6 mph 12.9 mph 94 % 0.0 in
21:22 5.4 °F 4.5 °F 1016.1 in SW 8.0 mph 12.9 mph 94 % 0.0 in
21:32 5.3 °F 4.3 °F 1016.1 in WSW 6.4 mph 14.5 mph 93 % 0.0 in
21:42 5.2 °F 4.3 °F 1016.1 in SW 3.2 mph 14.5 mph 94 % 0.0 in
21:52 5.1 °F 4.1 °F 1016.1 in SW 4.8 mph 9.7 mph 93 % 0.0 in
21:57 4.9 °F 3.9 °F 1016.1 in SSW 3.2 mph 11.3 mph 93 % 0.0 in
22:02 4.8 °F 3.9 °F 1016.1 in SW 6.4 mph 11.3 mph 94 % 0.0 in
22:12 4.8 °F 3.9 °F 1016.1 in SSW 4.8 mph 8.0 mph 94 % 0.0 in
22:17 4.7 °F 3.8 °F 1016.1 in SW 4.8 mph 11.3 mph 94 % 0.0 in
22:22 4.6 °F 3.7 °F 1016.5 in SW 4.8 mph 11.3 mph 94 % 0.0 in
22:32 4.4 °F 3.7 °F 1016.5 in SSW 1.6 mph 8.0 mph 95 % 0.0 in
22:37 4.4 °F 3.7 °F 1016.5 in South 3.2 mph 6.4 mph 95 % 0.0 in
22:42 4.3 °F 3.6 °F 1016.5 in Calm   6.4 mph 95 % 0.0 in
22:47 4.3 °F 3.6 °F 1016.5 in SSW 1.6 mph 4.8 mph 95 % 0.0 in
22:52 4.3 °F 3.6 °F 1016.5 in SSW 1.6 mph 4.8 mph 95 % 0.0 in
23:02 4.3 °F 3.6 °F 1016.5 in Calm   4.8 mph 95 % 0.0 in
23:07 4.2 °F 3.5 °F 1016.5 in Calm   6.4 mph 95 % 0.0 in
23:12 4.1 °F 3.4 °F 1016.5 in SW 1.6 mph 6.4 mph 95 % 0.0 in
23:17 4.1 °F 3.4 °F 1016.5 in SW 1.6 mph 3.2 mph 95 % 0.0 in
23:22 4.1 °F 3.4 °F 1016.5 in SSW 3.2 mph 3.2 mph 95 % 0.0 in
23:32 3.9 °F 3.2 °F 1016.1 in SSW 1.6 mph 4.8 mph 95 % 0.0 in
23:37 3.9 °F 3.2 °F 1016.5 in SSW 3.2 mph 4.8 mph 95 % 0.0 in
23:42 3.9 °F 3.2 °F 1016.1 in SSW 1.6 mph 4.8 mph 95 % 0.0 in
23:47 3.8 °F 3.1 °F 1016.1 in Calm   4.8 mph 95 % 0.0 in
23:52 3.7 °F 3.0 °F 1016.1 in Calm   4.8 mph 95 % 0.0 in
23:57 3.6 °F 2.9 °F 1016.1 in Calm   3.2 mph 95 % 0.0 in
Meteo18
Compliments of Weather Underground - 4 mb

Script developed by  Jim McMurry - jmcmurry@mwt.net Adapted for the template by  Wim van der Kuil - Leuven-Template.eu

You find our weather info also at:

European Weather Network

Weather Underground

Equipment we use:

Weather-station
Davis Vue

Weather-program
Meteobridge

Weather-server
Raspberry PI 2 B+

Provider
1 and 1

Davis Vue

Meteobridge

Raspberry PI 2 B+

1 and 1